Time,TemperatureF,DewpointF,PressureIn,WindDirection,WindDirectionDegrees,WindSpeedMPH,WindSpeedGustMPH,Humidity,HourlyPrecipIn,Conditions,Clouds,dailyrainin,SoftwareType,DateUTC
2013-08-10 00:00:00,71.3,53.2,29.87,North,0,0.0,0.0,53,0.00,,,0.00,WUHU216HW,2013-08-10 07:00:00,
2013-08-10 00:05:00,71.1,53.6,29.87,North,0,0.0,0.0,54,0.00,,,0.00,WUHU216HW,2013-08-10 07:05:00,
2013-08-10 00:10:00,70.9,53.4,29.87,North,0,0.0,0.0,54,0.00,,,0.00,WUHU216HW,2013-08-10 07:10:00,
2013-08-10 00:15:00,70.7,53.2,29.88,North,0,0.0,0.0,54,0.00,,,0.00,WUHU216HW,2013-08-10 07:15:00,
2013-08-10 00:20:00,70.7,53.2,29.88,North,0,0.0,0.0,54,0.00,,,0.00,WUHU216HW,2013-08-10 07:20:00,
2013-08-10 00:25:00,70.7,52.8,29.88,North,0,0.0,0.0,53,0.00,,,0.00,WUHU216HW,2013-08-10 07:25:00,
2013-08-10 00:30:00,70.9,52.9,29.87,NNW,338,0.4,0.4,53,0.00,,,0.00,WUHU216HW,2013-08-10 07:30:00,
2013-08-10 00:35:00,71.1,52.6,29.88,NNW,338,0.2,0.2,52,0.00,,,0.00,WUHU216HW,2013-08-10 07:35:00,
2013-08-10 00:40:00,70.9,52.4,29.88,NW,315,0.2,0.2,52,0.00,,,0.00,WUHU216HW,2013-08-10 07:40:00,
2013-08-10 00:45:00,70.9,52.4,29.88,NNW,338,0.2,0.2,52,0.00,,,0.00,WUHU216HW,2013-08-10 07:45:00,
2013-08-10 00:50:00,70.7,52.2,29.88,NNW,338,0.2,0.2,52,0.00,,,0.00,WUHU216HW,2013-08-10 07:50:00,
2013-08-10 00:55:00,70.7,52.2,29.88,NW,324,0.2,0.2,52,0.00,,,0.00,WUHU216HW,2013-08-10 07:55:00,
2013-08-10 01:00:00,70.6,52.0,29.88,NNW,338,0.2,0.2,52,0.00,,,0.00,WUHU216HW,2013-08-10 08:00:00,
2013-08-10 01:05:00,70.4,51.9,29.88,NNW,338,0.3,0.4,52,0.00,,,0.00,WUHU216HW,2013-08-10 08:05:00,
2013-08-10 01:10:00,70.2,52.2,29.88,NNW,338,0.2,0.2,53,0.00,,,0.00,WUHU216HW,2013-08-10 08:10:00,
2013-08-10 01:15:00,70.0,51.6,29.88,NW,315,0.2,0.2,52,0.00,,,0.00,WUHU216HW,2013-08-10 08:15:00,
2013-08-10 01:21:00,69.8,51.4,29.88,NW,315,0.2,0.2,52,0.00,,,0.00,WUHU216HW,2013-08-10 08:21:00,
2013-08-10 01:26:00,69.7,51.8,29.88,North,0,0.0,0.0,53,0.00,,,0.00,WUHU216HW,2013-08-10 08:26:00,
2013-08-10 01:31:00,69.5,51.6,29.88,North,0,0.0,0.0,53,0.00,,,0.00,WUHU216HW,2013-08-10 08:31:00,
2013-08-10 01:36:00,69.5,52.1,29.88,North,0,0.0,0.0,54,0.00,,,0.00,WUHU216HW,2013-08-10 08:36:00,
2013-08-10 01:41:00,69.3,51.9,29.88,North,0,0.7,0.7,54,0.00,,,0.00,WUHU216HW,2013-08-10 08:41:00,
2013-08-10 01:46:00,69.1,51.8,29.88,North,0,0.0,0.0,54,0.00,,,0.00,WUHU216HW,2013-08-10 08:46:00,
2013-08-10 01:51:00,68.8,51.4,29.88,North,0,0.0,0.0,54,0.00,,,0.00,WUHU216HW,2013-08-10 08:51:00,
2013-08-10 01:56:00,68.8,51.9,29.89,North,0,0.0,0.0,55,0.00,,,0.00,WUHU216HW,2013-08-10 08:56:00,
2013-08-10 02:01:00,68.4,51.6,29.89,North,0,0.0,0.0,55,0.00,,,0.00,WUHU216HW,2013-08-10 09:01:00,
2013-08-10 02:06:00,68.2,52.4,29.88,North,0,0.0,0.0,57,0.00,,,0.00,WUHU216HW,2013-08-10 09:06:00,
2013-08-10 02:11:00,68.4,52.6,29.89,North,0,0.0,0.0,57,0.00,,,0.00,WUHU216HW,2013-08-10 09:11:00,
2013-08-10 02:16:00,68.2,52.4,29.89,North,0,0.0,0.0,57,0.00,,,0.00,WUHU216HW,2013-08-10 09:16:00,
2013-08-10 02:21:00,68.2,52.4,29.88,North,0,0.0,0.0,57,0.00,,,0.00,WUHU216HW,2013-08-10 09:21:00,
2013-08-10 02:26:00,68.0,52.7,29.89,North,0,0.0,0.0,58,0.00,,,0.00,WUHU216HW,2013-08-10 09:26:00,
2013-08-10 02:31:00,68.0,52.7,29.89,North,0,0.0,0.0,58,0.00,,,0.00,WUHU216HW,2013-08-10 09:31:00,
2013-08-10 02:36:00,67.9,52.5,29.89,North,0,0.0,0.0,58,0.00,,,0.00,WUHU216HW,2013-08-10 09:36:00,
2013-08-10 02:41:00,67.7,52.4,29.89,North,0,0.0,0.0,58,0.00,,,0.00,WUHU216HW,2013-08-10 09:41:00,
2013-08-10 02:46:00,67.3,52.5,29.89,North,0,0.0,0.0,59,0.00,,,0.00,WUHU216HW,2013-08-10 09:46:00,
2013-08-10 02:51:00,67.3,52.5,29.89,North,0,0.0,0.0,59,0.00,,,0.00,WUHU216HW,2013-08-10 09:51:00,
2013-08-10 02:56:00,67.0,52.7,29.89,North,0,0.0,0.0,60,0.00,,,0.00,WUHU216HW,2013-08-10 09:56:00,
2013-08-10 03:01:00,66.6,52.7,29.89,North,0,0.0,0.0,61,0.00,,,0.00,WUHU216HW,2013-08-10 10:01:00,
2013-08-10 03:06:00,66.6,53.2,29.89,North,0,0.0,0.0,62,0.00,,,0.00,WUHU216HW,2013-08-10 10:06:00,
2013-08-10 03:11:00,66.6,53.7,29.89,North,0,0.0,0.0,63,0.00,,,0.00,WUHU216HW,2013-08-10 10:11:00,
2013-08-10 03:16:00,66.6,53.2,29.89,North,0,0.0,0.0,62,0.00,,,0.00,WUHU216HW,2013-08-10 10:16:00,
2013-08-10 03:21:00,66.4,53.5,29.89,North,0,0.0,0.0,63,0.00,,,0.00,WUHU216HW,2013-08-10 10:21:00,
2013-08-10 03:26:00,66.4,53.5,29.89,North,0,0.0,0.0,63,0.00,,,0.00,WUHU216HW,2013-08-10 10:26:00,
2013-08-10 03:31:00,66.2,53.3,29.90,North,0,0.0,0.0,63,0.00,,,0.00,WUHU216HW,2013-08-10 10:31:00,
2013-08-10 03:36:00,65.9,52.9,29.90,North,0,0.0,0.0,63,0.00,,,0.00,WUHU216HW,2013-08-10 10:36:00,
2013-08-10 03:41:00,65.5,52.6,29.90,North,0,0.0,0.0,63,0.00,,,0.00,WUHU216HW,2013-08-10 10:41:00,
2013-08-10 03:46:00,65.2,52.7,29.90,North,0,0.0,0.0,64,0.00,,,0.00,WUHU216HW,2013-08-10 10:46:00,
2013-08-10 03:51:00,65.0,52.5,29.90,North,0,0.0,0.0,64,0.00,,,0.00,WUHU216HW,2013-08-10 10:51:00,
2013-08-10 03:56:00,64.6,52.6,29.90,North,0,0.0,0.0,65,0.00,,,0.00,WUHU216HW,2013-08-10 10:56:00,
2013-08-10 04:01:00,64.4,52.4,29.90,North,0,0.0,0.0,65,0.00,,,0.00,WUHU216HW,2013-08-10 11:01:00,
2013-08-10 04:06:00,64.1,52.5,29.90,North,0,0.0,0.0,66,0.00,,,0.00,WUHU216HW,2013-08-10 11:06:00,
2013-08-10 04:11:00,63.9,52.8,29.90,North,0,0.0,0.0,67,0.00,,,0.00,WUHU216HW,2013-08-10 11:11:00,
2013-08-10 04:16:00,63.7,53.0,29.90,North,0,0.0,0.0,68,0.00,,,0.00,WUHU216HW,2013-08-10 11:16:00,
2013-08-10 04:26:00,63.7,53.0,29.91,North,0,0.0,0.0,68,0.00,,,0.00,WUHU216HW,2013-08-10 11:26:00,
2013-08-10 04:31:00,63.7,53.4,29.91,North,0,0.0,0.0,69,0.00,,,0.00,WUHU216HW,2013-08-10 11:31:00,
2013-08-10 04:36:00,63.5,53.2,29.91,North,0,0.0,0.0,69,0.00,,,0.00,WUHU216HW,2013-08-10 11:36:00,
2013-08-10 04:41:00,63.4,53.0,29.91,North,0,0.0,0.0,69,0.00,,,0.00,WUHU216HW,2013-08-10 11:41:00,
2013-08-10 04:46:00,63.2,52.8,29.91,North,0,0.0,0.0,69,0.00,,,0.00,WUHU216HW,2013-08-10 11:46:00,
2013-08-10 04:51:00,63.0,52.7,29.92,North,0,0.0,0.0,69,0.00,,,0.00,WUHU216HW,2013-08-10 11:51:00,
2013-08-10 04:56:00,62.6,52.7,29.91,North,0,0.0,0.0,70,0.00,,,0.00,WUHU216HW,2013-08-10 11:56:00,
2013-08-10 05:01:00,62.3,53.1,29.91,North,0,0.0,0.0,72,0.00,,,0.00,WUHU216HW,2013-08-10 12:01:00,
2013-08-10 05:06:00,62.3,53.1,29.92,North,0,0.0,0.0,72,0.00,,,0.00,WUHU216HW,2013-08-10 12:06:00,
2013-08-10 05:11:00,61.9,52.5,29.92,North,0,0.0,0.0,71,0.00,,,0.00,WUHU216HW,2013-08-10 12:11:00,
2013-08-10 05:16:00,61.7,52.3,29.92,North,0,0.0,0.0,71,0.00,,,0.00,WUHU216HW,2013-08-10 12:16:00,
2013-08-10 05:21:00,61.6,52.1,29.92,North,0,0.0,0.0,71,0.00,,,0.00,WUHU216HW,2013-08-10 12:21:00,
2013-08-10 05:26:00,61.2,52.2,29.92,North,0,0.0,0.0,72,0.00,,,0.00,WUHU216HW,2013-08-10 12:26:00,
2013-08-10 05:31:00,61.0,52.4,29.92,North,0,0.0,0.0,73,0.00,,,0.00,WUHU216HW,2013-08-10 12:31:00,
2013-08-10 05:36:00,61.0,52.4,29.92,North,0,0.0,0.0,73,0.00,,,0.00,WUHU216HW,2013-08-10 12:36:00,
2013-08-10 05:41:00,61.0,52.4,29.92,North,0,0.0,0.0,73,0.00,,,0.00,WUHU216HW,2013-08-10 12:41:00,
2013-08-10 05:46:00,61.0,52.4,29.92,North,0,0.0,0.0,73,0.00,,,0.00,WUHU216HW,2013-08-10 12:46:00,
2013-08-10 05:51:00,60.8,52.6,29.93,North,0,0.0,0.0,74,0.00,,,0.00,WUHU216HW,2013-08-10 12:51:00,
2013-08-10 05:56:00,60.8,52.9,29.93,North,0,0.0,0.0,75,0.00,,,0.00,WUHU216HW,2013-08-10 12:56:00,
2013-08-10 06:01:00,60.8,52.9,29.93,North,0,0.0,0.0,75,0.00,,,0.00,WUHU216HW,2013-08-10 13:01:00,
2013-08-10 06:06:00,60.7,53.1,29.93,North,0,0.0,0.0,76,0.00,,,0.00,WUHU216HW,2013-08-10 13:06:00,
2013-08-10 06:11:00,60.7,53.1,29.94,North,0,0.0,0.0,76,0.00,,,0.00,WUHU216HW,2013-08-10 13:11:00,
2013-08-10 06:16:00,60.8,53.3,29.94,North,0,0.0,0.0,76,0.00,,,0.00,WUHU216HW,2013-08-10 13:16:00,
2013-08-10 06:21:00,60.8,53.3,29.94,North,0,0.0,0.0,76,0.00,,,0.00,WUHU216HW,2013-08-10 13:21:00,
2013-08-10 06:26:00,61.0,53.1,29.94,North,0,0.0,0.0,75,0.00,,,0.00,WUHU216HW,2013-08-10 13:26:00,
2013-08-10 06:31:00,61.0,53.5,29.94,North,0,0.0,0.0,76,0.00,,,0.00,WUHU216HW,2013-08-10 13:31:00,
2013-08-10 06:36:00,61.0,53.5,29.94,North,0,0.0,0.0,76,0.00,,,0.00,WUHU216HW,2013-08-10 13:36:00,
2013-08-10 06:41:00,60.8,53.6,29.94,North,0,0.0,0.0,77,0.00,,,0.00,WUHU216HW,2013-08-10 13:41:00,
2013-08-10 06:46:00,61.0,53.8,29.94,North,0,0.0,0.0,77,0.00,,,0.00,WUHU216HW,2013-08-10 13:46:00,
2013-08-10 06:51:00,61.2,53.7,29.95,North,0,0.0,0.0,76,0.00,,,0.00,WUHU216HW,2013-08-10 13:51:00,
2013-08-10 06:56:00,61.4,53.7,29.95,North,0,0.0,0.0,76,0.00,,,0.00,WUHU216HW,2013-08-10 13:56:00,
2013-08-10 07:01:00,61.6,54.3,29.95,North,0,0.0,0.0,77,0.00,,,0.00,WUHU216HW,2013-08-10 14:01:00,
2013-08-10 07:06:00,62.1,54.8,29.95,North,0,0.0,0.0,77,0.00,,,0.00,WUHU216HW,2013-08-10 14:06:00,
2013-08-10 07:11:00,62.6,54.9,29.95,North,0,0.0,0.0,76,0.00,,,0.00,WUHU216HW,2013-08-10 14:11:00,
2013-08-10 07:16:00,63.0,55.3,29.95,North,0,0.0,0.0,76,0.00,,,0.00,WUHU216HW,2013-08-10 14:16:00,
2013-08-10 07:21:00,63.4,55.3,29.95,North,0,0.0,0.0,75,0.00,,,0.00,WUHU216HW,2013-08-10 14:21:00,
2013-08-10 07:26:00,63.9,55.4,29.96,North,0,0.0,0.0,74,0.00,,,0.00,WUHU216HW,2013-08-10 14:26:00,
2013-08-10 07:31:00,64.3,55.8,29.96,North,0,0.0,0.0,74,0.00,,,0.00,WUHU216HW,2013-08-10 14:31:00,
2013-08-10 07:36:00,64.6,56.2,29.96,North,0,0.0,0.0,74,0.00,,,0.00,WUHU216HW,2013-08-10 14:36:00,
2013-08-10 07:41:00,65.2,56.3,29.96,North,0,0.0,0.0,73,0.00,,,0.00,WUHU216HW,2013-08-10 14:41:00,
2013-08-10 07:46:00,65.5,56.3,29.96,North,0,0.0,0.0,72,0.00,,,0.00,WUHU216HW,2013-08-10 14:46:00,
2013-08-10 07:51:00,65.9,56.6,29.96,North,0,0.0,0.0,72,0.00,,,0.00,WUHU216HW,2013-08-10 14:51:00,
2013-08-10 07:56:00,66.2,56.5,29.96,North,0,0.0,0.0,71,0.00,,,0.00,WUHU216HW,2013-08-10 14:56:00,
2013-08-10 08:01:00,66.8,57.1,29.96,North,0,0.0,0.0,71,0.00,,,0.00,WUHU216HW,2013-08-10 15:01:00,
2013-08-10 08:06:00,67.1,57.1,29.97,North,0,0.0,0.0,70,0.00,,,0.00,WUHU216HW,2013-08-10 15:06:00,
2013-08-10 08:11:00,67.7,57.6,29.97,North,0,0.0,0.0,70,0.00,,,0.00,WUHU216HW,2013-08-10 15:11:00,
2013-08-10 08:16:00,68.0,57.5,29.97,North,0,0.0,0.0,69,0.00,,,0.00,WUHU216HW,2013-08-10 15:16:00,
2013-08-10 08:21:00,68.6,57.6,29.97,North,0,0.0,0.0,68,0.00,,,0.00,WUHU216HW,2013-08-10 15:21:00,
2013-08-10 08:26:00,68.9,57.5,29.97,SE,146,0.2,0.2,67,0.00,,,0.00,WUHU216HW,2013-08-10 15:26:00,
2013-08-10 08:31:00,69.1,57.7,29.97,South,171,0.2,0.2,67,0.00,,,0.00,WUHU216HW,2013-08-10 15:31:00,
2013-08-10 08:36:00,69.5,57.6,29.97,North,0,0.0,0.0,66,0.00,,,0.00,WUHU216HW,2013-08-10 15:36:00,
2013-08-10 08:41:00,69.8,58.0,29.97,SSE,161,0.2,0.2,66,0.00,,,0.00,WUHU216HW,2013-08-10 15:41:00,
2013-08-10 08:46:00,70.2,57.9,29.97,SSE,167,2.6,4.7,65,0.00,,,0.00,WUHU216HW,2013-08-10 15:46:00,
2013-08-10 08:51:00,70.6,57.8,29.97,South,174,3.1,4.7,64,0.00,,,0.00,WUHU216HW,2013-08-10 15:51:00,
2013-08-10 08:56:00,70.9,58.2,29.97,South,180,3.2,5.6,64,0.00,,,0.00,WUHU216HW,2013-08-10 15:56:00,
2013-08-10 09:01:00,71.3,58.1,29.97,South,182,3.7,5.4,63,0.00,,,0.00,WUHU216HW,2013-08-10 16:01:00,
2013-08-10 09:06:00,71.6,58.8,29.97,SSE,162,3.1,4.7,64,0.00,,,0.00,WUHU216HW,2013-08-10 16:06:00,
2013-08-10 09:11:00,72.2,58.9,29.97,South,188,3.8,5.4,63,0.00,,,0.00,WUHU216HW,2013-08-10 16:11:00,
2013-08-10 09:16:00,72.4,58.6,29.97,South,169,3.3,5.4,62,0.00,,,0.00,WUHU216HW,2013-08-10 16:16:00,
2013-08-10 09:21:00,72.4,58.1,29.97,South,172,4.5,6.3,61,0.00,,,0.00,WUHU216HW,2013-08-10 16:21:00,
2013-08-10 09:26:00,72.5,58.3,29.97,South,176,3.5,5.4,61,0.00,,,0.00,WUHU216HW,2013-08-10 16:26:00,
2013-08-10 09:31:00,72.9,58.7,29.97,SSW,197,2.7,4.0,61,0.00,,,0.00,WUHU216HW,2013-08-10 16:31:00,
2013-08-10 09:36:00,73.4,58.7,29.97,South,170,2.4,3.8,60,0.00,,,0.00,WUHU216HW,2013-08-10 16:36:00,
2013-08-10 09:41:00,73.8,58.5,29.97,SSW,197,3.6,4.7,59,0.00,,,0.00,WUHU216HW,2013-08-10 16:41:00,
2013-08-10 09:46:00,74.3,58.6,29.97,SSE,167,3.2,4.0,58,0.00,,,0.00,WUHU216HW,2013-08-10 16:46:00,
2013-08-10 09:51:00,74.5,58.8,29.97,South,171,3.0,5.4,58,0.00,,,0.00,WUHU216HW,2013-08-10 16:51:00,
2013-08-10 09:56:00,75.2,59.0,29.97,SSE,159,3.4,4.0,57,0.00,,,0.00,WUHU216HW,2013-08-10 16:56:00,
2013-08-10 10:01:00,75.4,59.1,29.97,SSE,161,3.0,4.7,57,0.00,,,0.00,WUHU216HW,2013-08-10 17:01:00,
2013-08-10 10:06:00,76.0,59.6,29.97,SSE,166,3.0,4.7,57,0.00,,,0.00,WUHU216HW,2013-08-10 17:06:00,
2013-08-10 10:11:00,76.3,59.0,29.97,SSE,164,3.1,5.6,55,0.00,,,0.00,WUHU216HW,2013-08-10 17:11:00,
2013-08-10 10:16:00,76.3,59.0,29.97,SSE,162,2.9,4.5,55,0.00,,,0.00,WUHU216HW,2013-08-10 17:16:00,
2013-08-10 10:21:00,76.5,59.1,29.97,SSE,149,2.4,4.3,55,0.00,,,0.00,WUHU216HW,2013-08-10 17:21:00,
2013-08-10 10:26:00,76.7,58.8,29.97,South,173,2.9,4.9,54,0.00,,,0.00,WUHU216HW,2013-08-10 17:26:00,
2013-08-10 10:31:00,77.2,59.2,29.97,SSW,196,2.2,4.3,54,0.00,,,0.00,WUHU216HW,2013-08-10 17:31:00,
2013-08-10 10:36:00,77.4,59.0,29.97,SSE,160,3.5,5.4,53,0.00,,,0.00,WUHU216HW,2013-08-10 17:36:00,
2013-08-10 10:41:00,77.6,58.6,29.97,SSW,204,2.4,4.7,52,0.00,,,0.00,WUHU216HW,2013-08-10 17:41:00,
2013-08-10 10:46:00,77.8,59.2,29.97,SSE,160,2.6,5.6,53,0.00,,,0.00,WUHU216HW,2013-08-10 17:46:00,
2013-08-10 10:51:00,78.3,59.2,29.98,South,186,2.4,3.8,52,0.00,,,0.00,WUHU216HW,2013-08-10 17:51:00,
2013-08-10 10:56:00,79.0,59.4,29.97,South,182,2.4,4.0,51,0.00,,,0.00,WUHU216HW,2013-08-10 17:56:00,
2013-08-10 11:01:00,79.0,58.9,29.98,SW,222,2.3,4.0,50,0.00,,,0.00,WUHU216HW,2013-08-10 18:01:00,
2013-08-10 11:06:00,78.8,58.7,29.97,SSW,193,2.6,4.5,50,0.00,,,0.00,WUHU216HW,2013-08-10 18:06:00,
2013-08-10 11:11:00,79.6,59.9,29.97,SSW,199,3.2,4.7,51,0.00,,,0.00,WUHU216HW,2013-08-10 18:11:00,
2013-08-10 11:16:00,80.1,59.2,29.97,SSW,194,2.7,4.3,49,0.00,,,0.00,WUHU216HW,2013-08-10 18:16:00,
2013-08-10 11:21:00,80.6,59.7,29.97,SSE,163,2.7,5.1,49,0.00,,,0.00,WUHU216HW,2013-08-10 18:21:00,
2013-08-10 11:26:00,80.6,59.0,29.97,SSW,197,2.6,4.7,48,0.00,,,0.00,WUHU216HW,2013-08-10 18:26:00,
2013-08-10 11:31:00,81.4,59.8,29.97,SSE,168,2.0,4.7,48,0.00,,,0.00,WUHU216HW,2013-08-10 18:31:00,
2013-08-10 11:36:00,81.5,59.3,29.97,SSW,204,2.0,3.8,47,0.00,,,0.00,WUHU216HW,2013-08-10 18:36:00,
2013-08-10 11:41:00,82.3,60.0,29.97,SSW,201,3.1,4.3,47,0.00,,,0.00,WUHU216HW,2013-08-10 18:41:00,
2013-08-10 11:46:00,81.5,58.7,29.97,West,267,3.3,6.0,46,0.00,,,0.00,WUHU216HW,2013-08-10 18:46:00,
2013-08-10 11:51:00,81.7,58.9,29.97,SSW,213,1.8,3.6,46,0.00,,,0.00,WUHU216HW,2013-08-10 18:51:00,
2013-08-10 11:56:00,82.6,59.7,29.97,SSE,154,1.7,3.1,46,0.00,,,0.00,WUHU216HW,2013-08-10 18:56:00,
2013-08-10 12:01:00,83.2,59.6,29.97,South,181,2.3,3.6,45,0.00,,,0.00,WUHU216HW,2013-08-10 19:01:00,
2013-08-10 12:06:00,83.9,59.6,29.96,South,178,2.4,4.0,44,0.00,,,0.00,WUHU216HW,2013-08-10 19:06:00,
2013-08-10 12:11:00,83.9,59.0,29.96,SSW,201,3.4,5.4,43,0.00,,,0.00,WUHU216HW,2013-08-10 19:11:00,
2013-08-10 12:16:00,84.1,59.1,29.97,South,179,2.1,4.0,43,0.00,,,0.00,WUHU216HW,2013-08-10 19:16:00,
2013-08-10 12:21:00,84.4,58.9,29.97,SSW,197,2.6,4.5,42,0.00,,,0.00,WUHU216HW,2013-08-10 19:21:00,
2013-08-10 12:26:00,84.6,59.1,29.96,SSE,159,2.8,4.5,42,0.00,,,0.00,WUHU216HW,2013-08-10 19:26:00,
2013-08-10 12:31:00,85.0,58.7,29.96,South,179,2.5,5.1,41,0.00,,,0.00,WUHU216HW,2013-08-10 19:31:00,
2013-08-10 12:36:00,85.5,58.6,29.96,South,176,2.5,4.0,40,0.00,,,0.00,WUHU216HW,2013-08-10 19:36:00,
2013-08-10 12:41:00,85.9,58.1,29.96,SSW,197,1.9,4.0,39,0.00,,,0.00,WUHU216HW,2013-08-10 19:41:00,
2013-08-10 12:46:00,85.9,58.9,29.95,SSW,192,2.0,3.4,40,0.00,,,0.00,WUHU216HW,2013-08-10 19:46:00,
2013-08-10 12:51:00,86.4,57.0,29.95,SSW,204,2.4,4.9,37,0.00,,,0.00,WUHU216HW,2013-08-10 19:51:00,
2013-08-10 12:56:00,86.0,56.7,29.95,West,262,1.9,3.4,37,0.00,,,0.00,WUHU216HW,2013-08-10 19:56:00,
2013-08-10 13:01:00,86.6,58.0,29.95,South,188,2.3,3.6,38,0.00,,,0.00,WUHU216HW,2013-08-10 20:01:00,
2013-08-10 13:06:00,87.1,59.2,29.95,SSE,151,2.0,3.8,39,0.00,,,0.00,WUHU216HW,2013-08-10 20:06:00,
2013-08-10 13:11:00,87.5,57.2,29.95,South,178,2.5,3.6,36,0.00,,,0.00,WUHU216HW,2013-08-10 20:11:00,
2013-08-10 13:16:00,86.9,56.6,29.95,West,268,2.7,4.7,36,0.00,,,0.00,WUHU216HW,2013-08-10 20:16:00,
2013-08-10 13:21:00,87.3,58.6,29.95,WNW,289,1.7,4.0,38,0.00,,,0.00,WUHU216HW,2013-08-10 20:21:00,
2013-08-10 13:26:00,87.8,59.0,29.94,WSW,246,2.7,4.7,38,0.00,,,0.00,WUHU216HW,2013-08-10 20:26:00,
2013-08-10 13:31:00,87.8,56.6,29.94,WNW,287,3.3,4.7,35,0.00,,,0.00,WUHU216HW,2013-08-10 20:31:00,
2013-08-10 13:36:00,88.0,56.0,29.94,West,260,2.5,6.5,34,0.00,,,0.00,WUHU216HW,2013-08-10 20:36:00,
2013-08-10 13:41:00,88.0,56.0,29.94,WNW,297,2.9,6.5,34,0.00,,,0.00,WUHU216HW,2013-08-10 20:41:00,
2013-08-10 13:47:00,88.4,56.3,29.94,West,264,1.7,3.6,34,0.00,,,0.00,WUHU216HW,2013-08-10 20:47:00,
2013-08-10 13:52:00,88.2,56.9,29.94,West,260,2.1,3.4,35,0.00,,,0.00,WUHU216HW,2013-08-10 20:52:00,
2013-08-10 13:57:00,88.7,57.3,29.93,WNW,291,1.4,3.1,35,0.00,,,0.00,WUHU216HW,2013-08-10 20:57:00,
2013-08-10 14:02:00,89.1,57.7,29.93,SSW,208,1.6,4.3,35,0.00,,,0.00,WUHU216HW,2013-08-10 21:02:00,
2013-08-10 14:07:00,89.5,58.0,29.93,West,281,2.5,3.6,35,0.00,,,0.00,WUHU216HW,2013-08-10 21:07:00,
2013-08-10 14:12:00,90.0,57.7,29.93,West,274,2.3,4.0,34,0.00,,,0.00,WUHU216HW,2013-08-10 21:12:00,
2013-08-10 14:17:00,90.0,57.7,29.93,West,276,2.5,5.4,34,0.00,,,0.00,WUHU216HW,2013-08-10 21:17:00,
2013-08-10 14:22:00,90.0,56.1,29.93,WNW,286,3.9,5.4,32,0.00,,,0.00,WUHU216HW,2013-08-10 21:22:00,
2013-08-10 14:27:00,90.2,55.4,29.93,NW,319,2.6,5.6,31,0.00,,,0.00,WUHU216HW,2013-08-10 21:27:00,
2013-08-10 14:32:00,90.0,56.9,29.93,NW,316,2.5,5.1,33,0.00,,,0.00,WUHU216HW,2013-08-10 21:32:00,
2013-08-10 14:37:00,90.5,57.3,29.93,WNW,298,1.6,3.1,33,0.00,,,0.00,WUHU216HW,2013-08-10 21:37:00,
2013-08-10 14:42:00,90.7,56.7,29.92,WNW,294,4.0,6.3,32,0.00,,,0.00,WUHU216HW,2013-08-10 21:42:00,
2013-08-10 14:47:00,90.5,56.6,29.93,WNW,293,2.8,5.8,32,0.00,,,0.00,WUHU216HW,2013-08-10 21:47:00,
2013-08-10 14:52:00,90.9,55.4,29.92,NW,305,3.8,6.7,30,0.00,,,0.00,WUHU216HW,2013-08-10 21:52:00,
2013-08-10 14:57:00,91.1,56.3,29.92,NW,305,2.9,6.3,31,0.00,,,0.00,WUHU216HW,2013-08-10 21:57:00,
2013-08-10 15:02:00,91.1,55.4,29.92,WNW,287,3.2,5.1,30,0.00,,,0.00,WUHU216HW,2013-08-10 22:02:00,
2013-08-10 15:07:00,91.1,56.3,29.92,WNW,299,3.0,4.9,31,0.00,,,0.00,WUHU216HW,2013-08-10 22:07:00,
2013-08-10 15:12:00,91.1,54.4,29.92,WNW,300,2.7,4.9,29,0.00,,,0.00,WUHU216HW,2013-08-10 22:12:00,
2013-08-10 15:17:00,90.9,54.2,29.92,WNW,298,1.6,3.4,29,0.00,,,0.00,WUHU216HW,2013-08-10 22:17:00,
2013-08-10 15:22:00,90.5,55.8,29.91,WNW,283,3.3,5.6,31,0.00,,,0.00,WUHU216HW,2013-08-10 22:22:00,
2013-08-10 15:27:00,90.9,56.1,29.91,WNW,300,2.4,5.4,31,0.00,,,0.00,WUHU216HW,2013-08-10 22:27:00,
2013-08-10 15:32:00,91.3,55.6,29.91,NW,322,2.3,4.9,30,0.00,,,0.00,WUHU216HW,2013-08-10 22:32:00,
2013-08-10 15:37:00,91.4,54.7,29.91,NW,317,3.0,7.2,29,0.00,,,0.00,WUHU216HW,2013-08-10 22:37:00,
2013-08-10 15:42:00,91.4,53.7,29.91,NNW,328,2.3,4.0,28,0.00,,,0.00,WUHU216HW,2013-08-10 22:42:00,
2013-08-10 15:47:00,91.3,55.6,29.91,NW,309,2.4,5.4,30,0.00,,,0.00,WUHU216HW,2013-08-10 22:47:00,
2013-08-10 15:52:00,91.3,55.6,29.91,NW,318,3.0,6.0,30,0.00,,,0.00,WUHU216HW,2013-08-10 22:52:00,
2013-08-10 15:57:00,91.4,55.8,29.91,WNW,303,2.9,5.6,30,0.00,,,0.00,WUHU216HW,2013-08-10 22:57:00,
2013-08-10 16:02:00,91.8,56.1,29.90,WNW,283,2.7,4.7,30,0.00,,,0.00,WUHU216HW,2013-08-10 23:02:00,
2013-08-10 16:07:00,91.4,55.8,29.90,WNW,298,2.0,3.6,30,0.00,,,0.00,WUHU216HW,2013-08-10 23:07:00,
2013-08-10 16:12:00,91.6,54.8,29.90,NW,311,2.7,6.0,29,0.00,,,0.00,WUHU216HW,2013-08-10 23:12:00,
2013-08-10 16:17:00,91.6,56.0,29.90,WNW,301,4.7,6.5,30,0.00,,,0.00,WUHU216HW,2013-08-10 23:17:00,
2013-08-10 16:22:00,91.4,54.7,29.89,WNW,299,2.5,5.1,29,0.00,,,0.00,WUHU216HW,2013-08-10 23:22:00,
2013-08-10 16:27:00,91.4,52.5,29.89,NNW,347,1.7,4.3,27,0.00,,,0.00,WUHU216HW,2013-08-10 23:27:00,
2013-08-10 16:32:00,91.4,54.7,29.89,NW,315,2.6,5.4,29,0.00,,,0.00,WUHU216HW,2013-08-10 23:32:00,
2013-08-10 16:37:00,91.6,52.7,29.89,NW,316,3.1,5.1,27,0.00,,,0.00,WUHU216HW,2013-08-10 23:37:00,
2013-08-10 16:42:00,91.4,50.3,29.89,NW,323,3.5,5.4,25,0.00,,,0.00,WUHU216HW,2013-08-10 23:42:00,
2013-08-10 16:47:00,91.4,51.4,29.89,WNW,297,4.7,8.3,26,0.00,,,0.00,WUHU216HW,2013-08-10 23:47:00,
2013-08-10 16:52:00,91.6,52.7,29.88,NNW,330,2.2,4.0,27,0.00,,,0.00,WUHU216HW,2013-08-10 23:52:00,
2013-08-10 16:57:00,91.6,50.5,29.89,WNW,303,4.7,6.9,25,0.00,,,0.00,WUHU216HW,2013-08-10 23:57:00,
2013-08-10 17:02:00,91.6,51.6,29.88,NW,312,3.7,6.0,26,0.00,,,0.00,WUHU216HW,2013-08-11 00:02:00,
2013-08-10 17:07:00,91.8,50.6,29.89,WNW,301,5.2,7.2,25,0.00,,,0.00,WUHU216HW,2013-08-11 00:07:00,
2013-08-10 17:12:00,91.8,50.6,29.88,NW,316,5.0,8.1,25,0.00,,,0.00,WUHU216HW,2013-08-11 00:12:00,
2013-08-10 17:17:00,91.8,49.5,29.88,NW,310,4.9,8.1,24,0.00,,,0.00,WUHU216HW,2013-08-11 00:17:00,
2013-08-10 17:22:00,92.2,50.9,29.88,NW,305,4.2,5.8,25,0.00,,,0.00,WUHU216HW,2013-08-11 00:22:00,
2013-08-10 17:27:00,91.8,50.6,29.88,WNW,292,4.7,8.7,25,0.00,,,0.00,WUHU216HW,2013-08-11 00:27:00,
2013-08-10 17:32:00,91.6,50.5,29.88,NW,313,4.4,7.2,25,0.00,,,0.00,WUHU216HW,2013-08-11 00:32:00,
2013-08-10 17:37:00,91.6,50.5,29.88,WNW,303,4.0,5.6,25,0.00,,,0.00,WUHU216HW,2013-08-11 00:37:00,
2013-08-10 17:42:00,91.4,52.5,29.88,WNW,303,4.0,5.6,27,0.00,,,0.00,WUHU216HW,2013-08-11 00:42:00,
2013-08-10 17:47:00,91.4,52.5,29.88,NW,316,2.7,5.1,27,0.00,,,0.00,WUHU216HW,2013-08-11 00:47:00,
2013-08-10 17:52:00,91.6,52.7,29.88,NW,305,4.1,6.3,27,0.00,,,0.00,WUHU216HW,2013-08-11 00:52:00,
2013-08-10 17:57:00,91.3,52.4,29.87,NW,320,2.5,6.0,27,0.00,,,0.00,WUHU216HW,2013-08-11 00:57:00,
2013-08-10 18:02:00,91.1,52.2,29.87,NW,314,3.9,6.9,27,0.00,,,0.00,WUHU216HW,2013-08-11 01:02:00,
2013-08-10 18:07:00,90.9,52.0,29.87,WNW,298,3.7,5.6,27,0.00,,,0.00,WUHU216HW,2013-08-11 01:07:00,
2013-08-10 18:12:00,90.9,52.0,29.87,NW,310,4.7,6.3,27,0.00,,,0.00,WUHU216HW,2013-08-11 01:12:00,
2013-08-10 18:17:00,90.7,51.8,29.87,WNW,299,3.8,5.4,27,0.00,,,0.00,WUHU216HW,2013-08-11 01:17:00,
2013-08-10 18:22:00,90.5,51.8,29.87,WNW,293,4.4,6.0,27,0.00,,,0.00,WUHU216HW,2013-08-11 01:22:00,
2013-08-10 18:27:00,90.4,49.4,29.87,WNW,298,4.5,5.8,25,0.00,,,0.00,WUHU216HW,2013-08-11 01:27:00,
2013-08-10 18:32:00,90.4,49.4,29.87,WNW,302,4.0,6.0,25,0.00,,,0.00,WUHU216HW,2013-08-11 01:32:00,
2013-08-10 18:37:00,90.2,50.3,29.87,WNW,298,4.1,5.1,26,0.00,,,0.00,WUHU216HW,2013-08-11 01:37:00,
2013-08-10 18:42:00,90.0,50.1,29.87,WNW,302,3.4,4.7,26,0.00,,,0.00,WUHU216HW,2013-08-11 01:42:00,
2013-08-10 18:47:00,89.8,50.1,29.87,NW,307,3.5,4.7,26,0.00,,,0.00,WUHU216HW,2013-08-11 01:47:00,
2013-08-10 18:52:00,89.6,49.9,29.87,WNW,298,3.1,4.5,26,0.00,,,0.00,WUHU216HW,2013-08-11 01:52:00,
2013-08-10 18:57:00,89.5,49.7,29.87,WNW,300,2.9,3.6,26,0.00,,,0.00,WUHU216HW,2013-08-11 01:57:00,
2013-08-10 19:02:00,89.3,49.6,29.87,NW,304,2.9,4.0,26,0.00,,,0.00,WUHU216HW,2013-08-11 02:02:00,
2013-08-10 19:07:00,89.1,49.4,29.87,NW,304,2.4,3.1,26,0.00,,,0.00,WUHU216HW,2013-08-11 02:07:00,
2013-08-10 19:12:00,88.9,49.2,29.87,WNW,297,1.7,2.5,26,0.00,,,0.00,WUHU216HW,2013-08-11 02:12:00,
2013-08-10 19:17:00,88.6,50.1,29.87,NW,305,1.8,2.7,27,0.00,,,0.00,WUHU216HW,2013-08-11 02:17:00,
2013-08-10 19:22:00,88.4,51.0,29.87,NW,312,1.7,2.5,28,0.00,,,0.00,WUHU216HW,2013-08-11 02:22:00,
2013-08-10 19:27:00,88.0,50.6,29.88,NW,314,1.5,2.0,28,0.00,,,0.00,WUHU216HW,2013-08-11 02:27:00,
2013-08-10 19:32:00,87.7,51.4,29.87,NW,312,1.2,1.8,29,0.00,,,0.00,WUHU216HW,2013-08-11 02:32:00,
2013-08-10 19:37:00,87.3,51.0,29.88,NW,315,1.2,1.8,29,0.00,,,0.00,WUHU216HW,2013-08-11 02:37:00,
2013-08-10 19:42:00,86.9,50.8,29.88,NW,315,1.0,1.3,29,0.00,,,0.00,WUHU216HW,2013-08-11 02:42:00,
2013-08-10 19:47:00,86.6,51.6,29.88,NW,315,0.4,0.7,30,0.00,,,0.00,WUHU216HW,2013-08-11 02:47:00,
2013-08-10 19:52:00,86.2,52.8,29.87,North,0,0.0,0.0,32,0.00,,,0.00,WUHU216HW,2013-08-11 02:52:00,
2013-08-10 19:57:00,85.7,53.2,29.87,North,0,0.0,0.0,33,0.00,,,0.00,WUHU216HW,2013-08-11 02:57:00,
2013-08-10 20:03:00,84.8,53.2,29.88,North,0,0.0,0.0,34,0.00,,,0.00,WUHU216HW,2013-08-11 03:03:00,
2013-08-10 20:08:00,83.9,52.4,29.88,North,0,0.0,0.0,34,0.00,,,0.00,WUHU216HW,2013-08-11 03:08:00,
2013-08-10 20:13:00,83.2,52.5,29.88,North,0,0.0,0.0,35,0.00,,,0.00,WUHU216HW,2013-08-11 03:13:00,
2013-08-10 20:18:00,82.4,52.7,29.88,North,0,0.0,0.0,36,0.00,,,0.00,WUHU216HW,2013-08-11 03:18:00,
2013-08-10 20:23:00,81.9,52.9,29.88,North,0,0.0,0.0,37,0.00,,,0.00,WUHU216HW,2013-08-11 03:23:00,
2013-08-10 20:29:00,81.4,53.3,29.88,North,0,0.0,0.0,38,0.00,,,0.00,WUHU216HW,2013-08-11 03:29:00,
2013-08-10 20:34:00,80.8,53.6,29.88,North,0,0.0,0.0,39,0.00,,,0.00,WUHU216HW,2013-08-11 03:34:00,
2013-08-10 20:39:00,80.3,53.1,29.89,North,0,0.0,0.0,39,0.00,,,0.00,WUHU216HW,2013-08-11 03:39:00,
2013-08-10 20:44:00,79.9,53.6,29.89,North,0,0.0,0.0,40,0.00,,,0.00,WUHU216HW,2013-08-11 03:44:00,
2013-08-10 20:49:00,79.6,53.8,29.89,North,0,0.0,0.0,41,0.00,,,0.00,WUHU216HW,2013-08-11 03:49:00,
2013-08-10 20:54:00,79.2,53.5,29.89,North,0,0.0,0.0,41,0.00,,,0.00,WUHU216HW,2013-08-11 03:54:00,
2013-08-10 20:59:00,78.7,53.0,29.90,North,0,0.0,0.0,41,0.00,,,0.00,WUHU216HW,2013-08-11 03:59:00,
2013-08-10 21:04:00,78.5,53.5,29.89,North,0,0.0,0.0,42,0.00,,,0.00,WUHU216HW,2013-08-11 04:04:00,
2013-08-10 21:09:00,78.1,53.1,29.90,North,0,0.0,0.0,42,0.00,,,0.00,WUHU216HW,2013-08-11 04:09:00,
2013-08-10 21:14:00,77.9,53.6,29.90,North,0,0.0,0.0,43,0.00,,,0.00,WUHU216HW,2013-08-11 04:14:00,
2013-08-10 21:19:00,77.6,53.9,29.90,North,0,0.0,0.0,44,0.00,,,0.00,WUHU216HW,2013-08-11 04:19:00,
2013-08-10 21:24:00,77.0,53.4,29.90,North,0,0.0,0.0,44,0.00,,,0.00,WUHU216HW,2013-08-11 04:24:00,
2013-08-10 21:29:00,76.7,53.1,29.90,North,0,0.0,0.0,44,0.00,,,0.00,WUHU216HW,2013-08-11 04:29:00,
2013-08-10 21:34:00,76.3,53.4,29.90,North,0,0.0,0.0,45,0.00,,,0.00,WUHU216HW,2013-08-11 04:34:00,
2013-08-10 21:39:00,75.8,52.8,29.90,North,0,0.0,0.0,45,0.00,,,0.00,WUHU216HW,2013-08-11 04:39:00,
2013-08-10 21:44:00,75.6,53.3,29.91,North,0,0.0,0.0,46,0.00,,,0.00,WUHU216HW,2013-08-11 04:44:00,
2013-08-10 21:49:00,75.4,53.2,29.91,North,0,0.0,0.0,46,0.00,,,0.00,WUHU216HW,2013-08-11 04:49:00,
2013-08-10 21:54:00,75.2,53.0,29.91,North,0,0.0,0.0,46,0.00,,,0.00,WUHU216HW,2013-08-11 04:54:00,
2013-08-10 21:59:00,74.9,53.3,29.91,North,0,0.0,0.0,47,0.00,,,0.00,WUHU216HW,2013-08-11 04:59:00,
2013-08-10 22:04:00,74.7,53.1,29.91,North,0,0.0,0.0,47,0.00,,,0.00,WUHU216HW,2013-08-11 05:04:00,
2013-08-10 22:09:00,74.5,52.9,29.91,North,0,0.0,0.0,47,0.00,,,0.00,WUHU216HW,2013-08-11 05:09:00,
2013-08-10 22:14:00,74.2,53.2,29.91,North,0,0.0,0.0,48,0.00,,,0.00,WUHU216HW,2013-08-11 05:14:00,
2013-08-10 22:19:00,74.2,53.2,29.91,North,0,0.0,0.0,48,0.00,,,0.00,WUHU216HW,2013-08-11 05:19:00,
2013-08-10 22:24:00,73.8,53.4,29.91,North,0,0.0,0.0,49,0.00,,,0.00,WUHU216HW,2013-08-11 05:24:00,
2013-08-10 22:29:00,73.6,53.2,29.91,North,0,0.0,0.0,49,0.00,,,0.00,WUHU216HW,2013-08-11 05:29:00,
2013-08-10 22:34:00,73.3,53.5,29.91,North,0,0.0,0.0,50,0.00,,,0.00,WUHU216HW,2013-08-11 05:34:00,
2013-08-10 22:39:00,72.9,53.2,29.91,North,0,0.0,0.0,50,0.00,,,0.00,WUHU216HW,2013-08-11 05:39:00,
2013-08-10 22:44:00,72.7,53.5,29.91,North,0,0.0,0.0,51,0.00,,,0.00,WUHU216HW,2013-08-11 05:44:00,
2013-08-10 22:49:00,72.5,53.4,29.91,North,0,0.0,0.0,51,0.00,,,0.00,WUHU216HW,2013-08-11 05:49:00,
2013-08-10 22:54:00,72.4,53.6,29.91,North,0,0.0,0.0,52,0.00,,,0.00,WUHU216HW,2013-08-11 05:54:00,
2013-08-10 22:59:00,71.6,53.6,29.92,North,0,0.0,0.0,53,0.00,,,0.00,WUHU216HW,2013-08-11 05:59:00,
2013-08-10 23:04:00,71.3,53.7,29.92,North,0,0.0,0.0,54,0.00,,,0.00,WUHU216HW,2013-08-11 06:04:00,
2013-08-10 23:09:00,71.1,54.1,29.92,North,0,0.0,0.0,55,0.00,,,0.00,WUHU216HW,2013-08-11 06:09:00,
2013-08-10 23:15:00,71.1,53.6,29.91,North,0,0.0,0.0,54,0.00,,,0.00,WUHU216HW,2013-08-11 06:15:00,
2013-08-10 23:20:00,70.9,53.4,29.92,North,0,0.0,0.0,54,0.00,,,0.00,WUHU216HW,2013-08-11 06:20:00,
2013-08-10 23:25:00,70.7,53.2,29.91,ENE,68,0.3,0.4,54,0.00,,,0.00,WUHU216HW,2013-08-11 06:25:00,
2013-08-10 23:30:00,70.7,53.7,29.92,North,0,0.0,0.0,55,0.00,,,0.00,WUHU216HW,2013-08-11 06:30:00,
2013-08-10 23:35:00,70.7,53.7,29.91,North,0,0.0,0.0,55,0.00,,,0.00,WUHU216HW,2013-08-11 06:35:00,
2013-08-10 23:40:00,70.6,53.6,29.91,NNE,23,0.2,0.2,55,0.00,,,0.00,WUHU216HW,2013-08-11 06:40:00,
2013-08-10 23:45:00,70.4,53.4,29.91,NNE,23,0.4,0.4,55,0.00,,,0.00,WUHU216HW,2013-08-11 06:45:00,
2013-08-10 23:50:00,70.2,53.3,29.92,NNW,348,0.3,0.7,55,0.00,,,0.00,WUHU216HW,2013-08-11 06:50:00,
2013-08-10 23:55:00,70.0,52.6,29.91,NW,321,0.4,0.7,54,0.00,,,0.00,WUHU216HW,2013-08-11 06:55:00,